Flight Track Log - Related Links

Times and Time Zones

All times are in EDT time to prevent confusion due to time zone crossing. See the DAL6221 flight status page for this flight to view local times or setup timezone preferences in your user account.

Time Position Orientation Groundspeed Altitude Reporting Facility
EDT Latitude Longitude Course Direction KTS MPH feet Rate Location/Type
12:40PM 40.7500 -73.8333 33° Northeast 161 185 2,100  Level New York TRACON
12:41PM 40.7839 -73.7639 57° Northeast 182 209 5,700 2,291 Climbing Boston Center
12:42PM 40.8531 -73.7242 23° Northeast 222 255 8,400 2,450 Climbing Boston Center
12:43PM 40.9286 -73.6764 26° Northeast 252 290 10,600 1,950 Climbing Boston Center
12:44PM 41.0272 -73.6122 26° Northeast 321 369 12,300 1,700 Climbing Boston Center
12:45PM 41.1667 -73.5542 33° Northeast  Level FlightAware Approximate
12:45PM 41.1194 -73.5533 26° Northeast 365 420 14,000  Level Boston Center
12:46PM 41.2222 -73.4833 27° Northeast 391 450 16,100 1,900 Climbing Boston Center
12:47PM 41.3208 -73.4186 26° Northeast 391 450 17,800 1,450 Climbing Boston Center
12:48PM 41.4108 -73.3589 26° Northeast 391 450 19,000 1,250 Climbing Boston Center
12:49PM 41.5136 -73.2717 32° Northeast 410 472 20,300 1,400 Climbing Boston Center
12:50PM 41.5936 -73.1617 46° Northeast 415 478 21,800 1,350 Climbing Boston Center
12:51PM 41.7044 -73.1214 15° North 400 460 23,000 600 Climbing Boston Center
12:52PM 41.8208 -73.1422 352° North 395 455 23,000  Level Boston Center
12:53PM 41.9397 -73.1628 353° North 402 463 23,000  Level Boston Center
12:54PM 42.0603 -73.1811 354° North 421 484 23,000  Level Boston Center
12:55PM 42.1789 -73.2050 352° North 427 491 23,000  Level Boston Center
12:56PM 42.2956 -73.2258 352° North 427 491 23,000 -50 Level Boston Center
12:57PM 42.4186 -73.2331 358° North 427 491 22,900  Descending Boston Center
12:58PM 42.5392 -73.2517 354° North 427 491 23,000 50 Climbing Boston Center
12:59PM 42.6703 -73.2900 348° North 432 497 23,000  Level Boston Center
01:00PM 42.7911 -73.2861 North 427 491 23,000  Level Boston Center
01:01PM 42.9100 -73.2764 North 422 486 23,000  Level Boston Center
01:02PM 43.0331 -73.2667 North 422 486 23,000  Level Boston Center
01:03PM 43.1519 -73.2569 North 427 491 23,000  Level Boston Center
01:04PM 43.2750 -73.2472 North 427 491 23,000  Level Boston Center
01:05PM 43.3958 -73.2400 North 427 491 23,000  Level Boston Center
01:06PM 43.5022 -73.2300 North 421 484 23,000 -200 Level Boston Center
01:07PM 43.6231 -73.2203 North 427 491 22,600 -1,350 Descending Boston Center
01:08PM 43.7544 -73.2103 North 427 491 20,300 -2,500 Descending Boston Center
01:09PM 43.8692 -73.2003 North 422 486 17,600 -2,850 Descending Boston Center
01:10PM 43.9794 -73.2133 355° North 403 464 14,600 -3,000 Descending Boston Center
01:11PM 44.0833 -73.2464 347° North 385 443 11,600 -2,100 Descending Boston Center
01:12PM 44.1728 -73.2767 346° North 352 405 10,400 -1,350 Descending Boston Center
01:13PM 44.2414 -73.3153 338° Northwest 307 353 8,900 -1,600 Descending Boston Center
01:14PM 44.3161 -73.3453 344° North 282 325 7,200 -1,650 Descending Boston Center
01:15PM 44.3908 -73.3639 350° North 275 316 5,600 -1,450 Descending Boston Center
01:16PM 44.4642 -73.3447 11° North 262 302 4,300 -1,350 Descending Boston Center
01:17PM 44.5125 -73.2814 43° Northeast 242 278 2,900 -1,400 Descending Boston Center
01:18PM 44.5128 -73.2231 90° East 172 198 1,500 -1,100 Descending Boston Center
01:19PM 44.4881 -73.1822 130° Southeast 134 154 700 -600 Descending Boston Center
01:20PM 44.4717 -73.1528 128° Southeast 129 148 300 -200 Descending Boston Center
01:21PM 44.4614 -73.1381 134° Southeast 85 98 300 11,350 Level Boston Center
01:22PM 44.4469 -73.1175 135° Southeast 85 98 23,000 22,700 Climbing Boston Center

Login

Don't have an account? Register now (free) for customized features, flight alerts, and more!